Overview Statistics Trail Chart Weather Telemetry Raw packets
 

This is the latest recevied weather packets stored in our database for station/object VK6WB. If no packets are shown the sender has not sent any weather packets the latest 10 day(s).

<< 1 2 3 4 5 6 7 >>
Time Temp. Humidity Pressure Rain* Wind** Luminosity Snow
1777710004 22.78° C 41% 1019.8 hPa 0 mm - 787 W/m² -
1777709405 15° C 40% 1019.8 hPa 0 mm - 787 W/m² -
1777708805 19.44° C 40% 1019.7 hPa 0 mm - 839 W/m² -
1777708204 19.44° C 40% 1019.7 hPa 0 mm - 994 W/m² -
1777707604 19.44° C 39% 1019.9 hPa 0 mm - 1149 W/m² -
1777707005 18.89° C 39% 1019.6 hPa 0 mm - 1356 W/m² -
1777706421 19.44° C 40% 1019.7 hPa 0 mm - 1356 W/m² -
1777705804 18.89° C 38% 1019.7 hPa 0 mm - 839 W/m² -
1777705205 18.89° C 38% 1019.8 hPa 0 mm - 374 W/m² -
1777704605 12.78° C 38% 1019.9 hPa 0 mm - 10 W/m² -
1777704004 18.89° C 40% 1019.9 hPa 0 mm - 10 W/m² -
1777703405 18.89° C 40% 1019.7 hPa 0 mm - 10 W/m² -
1777702804 18.89° C 38% 1019.9 hPa 0 mm - 10 W/m² -
1777702204 18.89° C 38% 1020 hPa 0 mm - 10 W/m² -
1777701604 18.33° C 40% 1020 hPa 0 mm - 10 W/m² -
1777701005 19.44° C 36% 1020 hPa 0 mm - 10 W/m² -
1777700405 19.44° C 35% 1020.4 hPa 0 mm - 10 W/m² -
1777699804 18.89° C 36% 1020.3 hPa 0 mm - 10 W/m² -
1777699204 18.33° C 40% 1020.4 hPa 0 mm - 10 W/m² -
1777698604 17.78° C 39% 1020.7 hPa 0 mm - 10 W/m² -
1777698005 17.22° C 40% 1020.9 hPa 0 mm - 10 W/m² -
1777697404 17.22° C 40% 1021.1 hPa 0 mm - 10 W/m² -
1777696805 17.22° C 38% 1021.3 hPa 0 mm - 10 W/m² -
1777696204 17.78° C 35% 1021.5 hPa 0 mm - 10 W/m² -
1777695604 17.22° C 38% 1021.6 hPa 0 mm - 10 W/m² -

* Rain latest hour (hover to see other rain measurements)
** Current wind speed in m/s (hover to see current wind gust speed)